Location: George Washington National Forest Helicopter Landing Site
(38.6463°N, 79.0851°W)
Time: 04:22:15
(UTC-04:00)

Tiros 1 despin weight - Pass Details

Date: 25 August 2019
Orbit: 595 x 642 km, 48.2° (Epoch: 15 September)

Event Time Altitude Azimuth Distance (km) Brightness Sun altitude
Rises 07:02:37 0° 289° (WNW) 2,890 ? 3.6°
Reaches altitude 10° 07:05:31 10° 270° (W) 1,990 ? 4.2°
Maximum altitude 07:08:37 18° 228° (SW) 1,536 ? 4.8°
Drops below altitude 10° 07:11:43 10° 185° (S) 2,001 ? 5.4°
Sets 07:14:40 0° 166° (SSE) 2,911 ? 5.9°
